Visibility
15.0 15.0 15.0 15.0 15.0 15.0 15.0 15.0 15.0 15.0 15.0 15.0 15.0 15.0 15.0 15.0 15.0 15.0 15.0 15.0 15.0 15.0 15.0 15.0 15.0 15.0 15.0
8.7 15.0 15.0 15.0 13.5 15.0 15.0 15.0 15.0 15.0 15.0 15.0 15.0 15.0 15.0 15.0 15.0 15.0 15.0 15.0 15.0 15.0 15.0 15.0 15.0 15.0 15.0
0.6 14.5 15.0 15.0 15.0 15.0 15.0 15.0 15.0 15.0 15.0 15.0 15.0 15.0 15.0 15.0 15.0 15.0 15.0 15.0 15.0 15.0 15.0 15.0 15.0 15.0 15.0
15.0 15.0 15.0 15.0 15.0 15.0 15.0 15.0 15.0 15.0 15.0 15.0 15.0 15.0 15.0 15.0 15.0 15.0 15.0 15.0 15.0 15.0 15.0 15.0 15.0 15.0 15.0
15.0 15.0 15.0 15.0 12.4 15.0 15.0 15.0 15.0 15.0 15.0 15.0 15.0 15.0 15.0 15.0 15.0 15.0 15.0 15.0 15.0 15.0 15.0 15.0 15.0 15.0 15.0
15.0 14.9 15.0 15.0 15.0 15.0 15.0 15.0 15.0 15.0 15.0 15.0 15.0 15.0 15.0 15.0 15.0 15.0 15.0 15.0 15.0 15.0 15.0 15.0 15.0 15.0 15.0
15.0 15.0 15.0 15.0 15.0 15.0 15.0 15.0 15.0 15.0 15.0 15.0 15.0 15.0 15.0 15.0 15.0 15.0 15.0 15.0 15.0 15.0 15.0 15.0 15.0 15.0 15.0
15.0 15.0 15.0 15.0 15.0 15.0 15.0 15.0 15.0 15.0 15.0 15.0 15.0 15.0 15.0 15.0 15.0 15.0 15.0 15.0 15.0 15.0 15.0 15.0 15.0 15.0 15.0
15.0 15.0 15.0 15.0 15.0 15.0 15.0 15.0 15.0 15.0 15.0 15.0 15.0 15.0 15.0 15.0 15.0 15.0 15.0 15.0 15.0 15.0 15.0 15.0 15.0 15.0 15.0
15.0 15.0 15.0 15.0 15.0 15.0 15.0 15.0 15.0 15.0 15.0 14.8 8.2 15.0 15.0 15.0 15.0 15.0 15.0 15.0 15.0 15.0 15.0 15.0 15.0 15.0 15.0
15.0 15.0 15.0 15.0 15.0 15.0 15.0 15.0 8.2 9.2 15.0 14.6 4.2 5.3 4.8 9.1 15.0 15.0 15.0 15.0 15.0 15.0 15.0 15.0 15.0 15.0 15.0
15.0 15.0 15.0 15.0 15.0 15.0 15.0 15.0 15.0 15.0 15.0 15.0 4.9 8.6 4.1 4.1 11.5 15.0 13.7 11.4 15.0 15.0 15.0 15.0 15.0 15.0 15.0
15.0 15.0 15.0 15.0 15.0 15.0 15.0 15.0 12.5 12.3 14.9 15.0 14.9 4.1 4.5 4.1 4.2 5.4 14.9 15.0 11.5 6.4 6.9 15.0 15.0 15.0 14.7
15.0 15.0 15.0 15.0 15.0 6.6 5.4 5.4 5.0 15.0 15.0 15.0 15.0 15.0 15.0 15.0 15.0 13.5 11.6 7.8 5.4 5.5 6.1 8.5 15.0 15.0 15.0
14.8 7.4 15.0 15.0 12.6 5.6 7.7 5.1 13.1 12.7 15.0 13.8 15.0 15.0 15.0 14.5 5.6 11.8 10.4 14.1 15.0 15.0 7.4 5.7 15.0 15.0 15.0
15.0 15.0 15.0 15.0 14.6 5.3 11.2 13.6 5.9 15.0 15.0 15.0 7.6 4.3 6.5 15.0 15.0 4.9 5.2 15.0 15.0 6.0 3.8 4.8 15.0 15.0 15.0
15.0 15.0 15.0 15.0 15.0 6.8 6.5 15.0 6.7 5.9 13.3 4.9 3.6 1.2 1.1 4.5 15.0 15.0 7.4 5.3 6.5 7.5 10.4 9.6 15.0 15.0 15.0